Miscellaneous Local Product
Issued by NWS Hastings, NE

Home | Current Version | Previous Version | Text Only | Print | Product List | Glossary On
Versions: 1 2 3 4 5 6 7 8 9 10 11 12 13 14 15 16 17 18 19 20 21 22 23 24 25 26 27 28 29 30 31 32 33 34 35 36 37 38 39 40 41 42 43 44 45 46 47 48 49 50
000
AXUS43 KGID 041502
MISGRI

GID CWA HOURLY WEATHER ROUNDUP
NATIONAL WEATHER SERVICE HASTINGS NE
1000 AM CDT FRI SEP 04 2015

NOTE: "FAIR" INDICATES FEW OR NO CLOUDS BELOW 12,000 FEET WITH NO
SIGNIFICANT WEATHER AND/OR OBSTRUCTIONS TO VISIBILITY.

...SOUTH CENTRAL NEBRASKA...

CITY           SKY/WX    TMP DP  RH WIND       PRES   REMARKS
GRAND ISLAND   PTSUNNY   77  65  66 S18       29.87S
HASTINGS       MOSUNNY   79  65  62 S14G26    29.88S
KEARNEY        MOSUNNY   77  61  57 S21G29    29.85F
ORD            PTSUNNY   77  64  64 S12G20    29.84S
YORK           MOSUNNY   77  68  73 S18       29.89S
AURORA         MOSUNNY   78  67  66 S17G24    29.88S
LEXINGTON      MOSUNNY   76  62  62 SE9       29.84F
HOLDREGE       MOSUNNY   76  61  58 S16G25    29.85S
HEBRON         PTSUNNY   73  67  79 SE8       29.91F

...NEBRASKA PANHANDLE...

CITY           SKY/WX    TMP DP  RH WIND       PRES   REMARKS
CHADRON        SUNNY     74  52  46 W8        29.85S
ALLIANCE       SUNNY     71  55  56 VRB3      29.90S
SCOTTSBLUFF    SUNNY     68  54  60 CALM      29.92S
SIDNEY         SUNNY     73  48  41 NW8       29.95R

...WESTERN AND NORTH CENTRAL NEBRASKA...

CITY           SKY/WX    TMP DP  RH WIND       PRES   REMARKS
VALENTINE      SUNNY     75  64  68 SW6       29.82S
AINSWORTH      MOSUNNY   75  66  74 S13       29.81F
ONEILL         PTSUNNY   76  67  73 SE8       29.85S
BROKEN BOW     PTSUNNY   76  62  62 S14       29.85S
IMPERIAL       SUNNY     73  58  59 NW6       29.89R
NORTH PLATTE   SUNNY     73  62  68 SE3       29.85R
MCCOOK         MOSUNNY   76  62  62 W8        29.84R

...EASTERN NEBRASKA...

CITY           SKY/WX    TMP DP  RH WIND       PRES   REMARKS
NORFOLK        CLOUDY    77  68  73 SE13      29.85F
SO SIOUX CITY  CLOUDY    73  68  84 S16       29.85S
TEKAMAH        CLOUDY    74  71  91 S8        29.90F
COLUMBUS       PTSUNNY   77  64  65 SE8       29.87F
ALBION         PTSUNNY   74  65  72 S15G21    29.87R
OMAHA EPPLEY   CLOUDY    78  69  73 S15       29.93S
OFFUTT AFB     CLOUDY    78  69  76 SE8       29.93S
MILLARD        CLOUDY    76  69  80 SE9       29.93F
LINCOLN        LGT RAIN  72  69  90 S10       29.90F
NEBRASKA CITY  CLOUDY    78  66  68 S9        29.96S
BEATRICE       CLOUDY    76  69  80 S7        29.94F
FALLS CITY     MOSUNNY   81  70  69 S8        29.96R

...NORTHERN KANSAS...

CITY           SKY/WX    TMP DP  RH WIND       PRES   REMARKS
GOODLAND       SUNNY     77  53  43 NW12      29.93R
HILL CITY      SUNNY     82  60  47 S15G21    29.86S
NORTON         SUNNY     77  55  47 S12G18    29.85S
PHILLIPSBURG   SUNNY     84  61  45 S12G17    29.86S
SMITH CENTER   SUNNY     79  64  61 SE21      29.88S
HAYS           SUNNY     82  61  47 S21G30    29.87R
RUSSELL        SUNNY     83  62  49 S29G35    29.87S
CONCORDIA      MOSUNNY   82  64  54 S21G30    29.90F
SALINA         SUNNY     85  65  51 S15G28    29.91F
TOPEKA         SUNNY     83  69  62 S7        29.98R



USA.gov is the U.S. government's official web portal to all federal, state and local government web resources and services.